Goldsboro, NC

10:04 AM EST on December 03, 2016 (GMT -0500)
Seymour Johnson Air Force Base

Weather History for KGSB - June, 2013

Change the Weather History Date:

Wednesday, June 12, 2013

  Actual Average Record
Temperature  
Mean Temperature 80 °F -  
Max Temperature 92 °F 85 °F 98 °F (1998)
Min Temperature 68 °F 66 °F 59 °F (1999)
Cooling Degree Days 15    
Growing Degree Days 30 (Base 50)    
Moisture  
Dew Point 68 °F    
Average Humidity 66    
Maximum Humidity 89    
Minimum Humidity 43    
Precipitation  
Precipitation 0.00 in - - ()
Sea Level Pressure  
Sea Level Pressure 29.93 in    
Wind  
Wind Speed 5 mph (WSW)    
Max Wind Speed 15 mph    
Max Gust Speed -    
Visibility 10 miles    
Events      
Averages and records for this station are not official NWS values.
T = Trace of Precipitation, MM = Missing Value Source: NWS Daily Summary

Daily Weather History Graph

Daily Weather History Graph

Search for Another Location

Airport or City:

Trip Planner

Search our weather history database for the weather conditions in past years. The results will help you decide how hot, cold, wet, or windy it might be!

Date:

Astronomy

Jun. 12, 2013 Rise Set
Actual Time 5:56 AM EDT 8:27 PM EDT
Civil Twilight 5:26 AM EDT 8:57 PM EDT
Nautical Twilight 4:49 AM EDT 9:34 PM EDT
Astronomical Twilight 4:08 AM EDT 10:14 PM EDT
Moon 9:27 AM EDT (6/12) 11:09 PM EDT (6/12)
Length of Visible Light 15h 30m
Length of Day
14h 30m
Waxing Crescent, 14% of the Moon is Illuminated
Jun 12
Waxing Crescent
Jun 16
First Quarter
Jun 23
Full
Jun 30
Last Quarter
Jul 8
New

Hourly Weather History & Observations

Time (EDT) Temp. Heat Index Dew Point Humidity Pressure Visibility Wind Dir Wind Speed Gust Speed Precip Events Conditions
12:58 AM 71.8 °F - 65.8 °F 81% 29.96 in 10.0 mi SW 2.3 mph - N/A   Clear
1:58 AM 71.4 °F - 64.9 °F 80% 29.94 in 10.0 mi SW 2.3 mph - N/A   Clear
2:58 AM 71.2 °F - 64.9 °F 80% 29.93 in 10.0 mi SW 2.3 mph - N/A   Clear
3:58 AM 70.2 °F - 65.1 °F 84% 29.93 in 10.0 mi SW 4.6 mph - N/A   Clear
4:58 AM 69.1 °F - 64.9 °F 87% 29.94 in 10.0 mi Calm Calm - N/A   Clear
5:58 AM 68.4 °F - 64.9 °F 89% 29.96 in 10.0 mi WSW 5.8 mph - N/A   Clear
6:58 AM 70.5 °F - 66.6 °F 87% 29.98 in 10.0 mi West 4.6 mph - N/A   Clear
7:58 AM 74.3 °F - 67.1 °F 78% 29.99 in 10.0 mi West 4.6 mph - N/A   Partly Cloudy
8:58 AM 78.4 °F - 66.9 °F 68% 29.98 in 10.0 mi WSW 5.8 mph - N/A   Clear
9:58 AM 82.6 °F 85.3 °F 67.6 °F 60% 29.97 in 10.0 mi WSW 5.8 mph - N/A   Clear
10:58 AM 85.1 °F 87.7 °F 66.9 °F 54% 29.96 in 10.0 mi West 8.1 mph - N/A   Clear
11:58 AM 87.6 °F 90.1 °F 66.4 °F 49% 29.96 in 10.0 mi WSW 5.8 mph - N/A   Clear
12:58 PM 88.9 °F 90.7 °F 65.3 °F 45% 29.94 in 10.0 mi West 12.7 mph - N/A   Mostly Cloudy
1:58 PM 88.2 °F 90.6 °F 66.0 °F 48% 29.94 in 10.0 mi WSW 11.5 mph - N/A   Scattered Clouds
2:58 PM 90.5 °F 93.3 °F 66.6 °F 45% 29.93 in 10.0 mi West 10.4 mph - N/A   Partly Cloudy
3:58 PM 91.8 °F 94.6 °F 66.2 °F 43% 29.90 in 10.0 mi SW 10.4 mph - N/A   Clear
4:58 PM 92.3 °F 96.1 °F 67.6 °F 44% 29.89 in 10.0 mi West 15.0 mph - N/A   Clear
5:58 PM 91.2 °F 95.5 °F 68.7 °F 47% 29.88 in 10.0 mi WNW 10.4 mph - N/A   Clear
6:58 PM 90.0 °F 95.0 °F 69.6 °F 51% 29.89 in 10.0 mi West 5.8 mph - N/A   Clear
7:58 PM 87.1 °F 92.8 °F 71.1 °F 59% 29.89 in 10.0 mi WSW 4.6 mph - N/A   Clear
8:58 PM 82.9 °F 88.3 °F 72.3 °F 70% 29.89 in 10.0 mi SW 2.3 mph - N/A   Clear
9:58 PM 81.7 °F 86.3 °F 71.8 °F 72% 29.89 in 10.0 mi Calm Calm - N/A   Clear
10:58 PM 80.6 °F 84.7 °F 72.1 °F 75% 29.88 in 10.0 mi South 2.3 mph - N/A   Clear
11:58 PM 79.9 °F - 72.1 °F 77% 29.88 in 10.0 mi SSW 2.3 mph - N/A   Scattered Clouds